Zurück zum Katalog

OSCAR 23

AktivAmateurfunkPO
NORAD 19070·PAYLOAD·🇺🇸 United States

Gestartet Apr 26, 1988 von Vandenberg Space Force Base

Loading…

Nächste Überflüge (nächste 24 Stunden)

TLE

AktuellSource: Space-Track

Epoche: Sep 14, 2026, 15:11 UTC

1 19070U 88033A   26257.63276385  .00000041  00000-0  62573-4 0  9993
2 19070  90.3357  25.1331 0190878 132.7758 308.8385 13.27827985859141

Verfolge OSCAR 23 in Echtzeit mit AllMySat

Download on the App Store